カタログに戻る

STARLINK-5731

運用中通信VLEO
NORAD 56924·PAYLOAD·🇺🇸 United States

打ち上げ Jun 12, 2023 から Cape Canaveral Space Force Station

Loading…

次のパス (今後24時間)

TLE

最新Source: CelesTrak SupGP

元期: Sep 14, 2026, 21:29 UTC

1 56924C 23083BA  26257.89562500  .00034601  00000+0  12533-2 0  2575
2 56924  43.0037  82.3728 0001952 275.5024  26.9085 15.27559764    19

AllMySatでSTARLINK-5731をリアルタイム追跡

Download on the App Store